La Barousse Balès - 06/08/2017

L'OURSE 110 Km


Pl Do. Nom - Surname Prénom - Name S-Cat /cat Club - Team TEMPS - Time Km/h /sx
1 762 TINE CYRIL MC 1 LUCHON LOURON CYCLISME 03:41:57 29,7 1
2 731 ZUERAS JOSEPH MC 2 GPCC 03:46:54 29,1 2
3 710 BALITRAND DOMINIQUE MC 3 TEAM GSO 03:46:55 29,1 3
4 748 COUTINHO AUGUSTE MD 1 NL 03:47:57 29,0 4
5 764 BENISTANT DAVID MA 1 UC RAUVEZIN 03:48:27 28,9 5
6 717 PETROLINI UGO MA 2 ST-GO CYCLISME COMMINGES 03:48:38 28,9 6
7 652 HIBERT MATTHIEU MA 3   03:53:44 28,2 7
8 550 PIVOTTO NICOLAS MB 1 UC CONDOM 03:57:30 27,8 8
9 681 PENDERY LEO MA 4   03:58:02 27,7 9
10 763 MIQUEL DANIEL MD 2 ZE FAUSSEREL ACF 03:58:02 27,7 10
11 513 ANCAUSSE CYRIL MB 2 GSC BLAGNAC VELO SPORT 31 03:58:03 27,7 11
12 693 JOURDAN FRANÇOIS ME 1 AL NOUILHAN 03:59:08 27,6 12
13 714 BRAUD GRÉGORY MB 3 AC BAGNERES DE BIGORRE 04:03:14 27,1 13
14 635 AVOND GUILLAUME MA 5 SJVC MONTELIMAR MONTELIMAR 04:03:17 27,1 14
15 698 DECAMPS FABIEN MA 6 ST GAUDENS CYCLISME 04:06:02 26,8 15
16 661 MITXELENA LUCIANO MF 1 BETI GAZTE 04:06:05 26,8 16
17 697 LAFORGUE GÉRÉMIE MA 7 TEAM GSO 04:10:12 26,4 17
18 758 HACQUART BRICE MA 8 AQUASPORT SAINT-CYPRIEN 04:10:47 26,3 18
19 650 DUCHAYNE QUENTIN MA 9 USCOLOMIERS CYCLISME 04:10:47 26,3 19
20 723 FAGES YANNICK MC 4 MONTREJEAU CYCLO CLUB 04:10:48 26,3 20
21 695 GERMA XAVIER MD 3 VELO CLUB ROQUETTOIS OMNISPORTS 04:10:48 26,3 21
22 628 PUJOL JOEL MC 5 AS MURET CYCLISTE 04:10:51 26,3 22
23 721 OLMEDA JEAN ME 2 NL 04:14:00 26,0 23
24 664 SORET JULIEN MB 4   04:14:01 26,0 24
25 689 SAJAS PATRICK MD 4 SAINT GAUDENS CYCLISME COMMINGES 04:14:01 26,0 25
26 647 JUCHTZER HERVÉ ME 3 GCP Pau 04:14:08 26,0 26
27 644 LE TOLLEC STEPHANE MD 5 BALMA VELO SPRINT 31 04:14:11 26,0 27
28 515 FERRE GILLES MD 6 LUCHON LOURON CYCLISME 04:14:22 25,9 28
29 631 ADAGAS JULIEN MB 5 AC TOURNEFEUILLE 04:14:22 25,9 29
30 567 ROLLINGER JULIEN MA 10 SAINT NAUPHARY VELO SPORT 04:14:22 25,9 30
31 632 JACQUES AURÉLIEN MB 6 aucun 04:14:41 25,9 31
32 690 DELOUVEE JÉRÔME MC 6 TEAM GSO 04:15:11 25,9 32
33 755 FERRARONI JEROME MC 7 BALMA OLYMPIQUE 04:15:12 25,9 33
34 739 OLLIER JEAN-CHRISTOPHE MC 8 MONTREJEAU CYCLO CLUB 04:15:14 25,9 34
35 616 CAZORLA THIBAUT MB 7 TRAIL TEAM BUCHINOIS (TTB) 04:15:15 25,9 35
36 743 SAVAZZI SYLVAIN MB 8 NL 04:15:15 25,9 36
37 705 SOURBADERE JOEL MD 7 U S PLAISANCE CYCLISME 04:15:16 25,9 37
38 674 CARDAILLAC CYRIL MC 9   04:15:40 25,8 38
39 671 LASSUS ALAIN MD 8 SAINT-GO COMMINGES 04:15:42 25,8 39
40 641 HIVER DAVID MB 9 SO6 de Toulouse 04:15:57 25,8 40
41 547 ABEILLE PATRICK MB 10 U.C.L.B. 04:16:49 25,7 41
42 506 BASTRILLES CHRISTOPHE MD 9 MONTREJEAU CYCLO CLUB 04:21:13 25,3 42
43 682 BOISSE PASCAL MC 10   04:21:13 25,3 43
44 649 GARROCQ DAVID MA 11   04:23:42 25,0 44
45 655 TORREGROSA OLIVIER MC 11 USA Latécoère 04:23:44 25,0 45
46 590 MEDAN CARLOS MD 10   04:23:44 25,0 46
47 708 THYERRY SEBASTIEN MC 12 AVENIR BIZANOS CYCLO 04:23:45 25,0 47
48 700 ERIZE JEAN - MARC MB 11 Racing Club Vallée d'Aspe 04:23:47 25,0 48
49 746 FERRE YANNICK MC 13 AS MURET 04:23:48 25,0 49
50 696 CAPESTAN CHRISTOPHE MC 14   04:23:51 25,0 50
51 751 SAURIAT THIERRY MC 15 BALMA VELO SPRINT 04:24:45 24,9 51
52 610 AUREGLIA STEPHANE MD 11 U.C. CONDOM 04:24:45 24,9 52
53 759 LEBOT CENZINO MHY 1 ACQUASPORT ST-CYPRIEN 04:24:46 24,9 53
54 571 PUYDEBOIS SERGE ME 4 MALEMORT 04:24:46 24,9 54
55 694 MOLA PIERRE MC 16 AS MURET CYCLISTE 04:24:47 24,9 55
56 735 BACCARIN JHON MB 12 AVENIR BIZANOS 04:24:48 24,9 56
57 659 AUGE NICOLAS MB 13 VC PONTACQUAIS 04:28:57 24,5 57
58 589 CASTEROT JEAN-CLAUDE MF 2 CYCLO CLUB LOURDAIS 04:28:58 24,5 58
59 678 DURAND SIMON MC 17 BAGNERES DE BIGORRE 04:29:00 24,5 59
60 645 HALL STEVE MC 18   04:29:00 24,5 60
61 761 FOURCADE DIMITRI MA 12 TEAM GSO 04:29:00 24,5 61
62 692 DUCOS JEAN-CLAUDE ME 5 COUSERANS CYCLISTE 04:29:01 24,5 62
63 622 CAUQUIL REMY MD 12   04:29:02 24,5 63
64 727 LABLOND YOHANNE MB 14 NL 04:29:07 24,5 64
65 656 BARRERE DIDIER MC 19 CCLOURDAIS 04:29:14 24,5 65
66 667 WOOD NICK MC 20   04:32:10 24,2 66
67 724 BOURDIN EMMANUEL MB 15 SSCM MIRAMAS 04:32:10 24,2 67
68 737 NOGUES YVES ME 6 ROUE LIBRE HUOSSAISE 04:32:10 24,2 68
69 752 GOURON MICHEL MD 13 NL 04:32:10 24,2 69
70 530 GRANIER NICOLAS MB 16   04:32:12 24,2 70
71 702 FAVEREAU JEAN-JACQUES ME 7 U S Plaisance Cyclisme 04:32:12 24,2 71
72 583 FAURE PATRICK MD 14   04:32:13 24,2 72
73 525 BEDEL GERALD MF 3 CYCLO CLUB PORTET 04:32:13 24,2 73
74 586 PINSON RÉGIS MF 4 Team Varennes les vélos 04:32:13 24,2 74
75 532 JUIN PIERRE ME 8 CPRS LABARTHE CYCLO 04:32:15 24,2 75
76 770 RAVELLI ALBIN MC 21 CAHORS CYCLISME 04:38:13 23,7 76
77 577 THIERRY LAURENT MC 22 CYCLO FONSORBAIS 04:38:13 23,7 77
78 529 ROUX JEROME MC 23 les maillons libres de cornebarrieu 04:38:50 23,7 78
79 745 LERIDON MAXIME MB 17 NL 04:38:50 23,7 79
80 630 BOER PATRICE MC 24 LE HOUGA 04:38:51 23,7 80
81 675 ANTOINE PATRICK MD 15   04:38:52 23,7 81
82 658 FABREGA JEROME MC 25 SPORT OLYMPIQUE SEYSSOIS 04:38:53 23,7 82
83 685 ALBERT JEAN-BAPTISTE MD 16   04:38:54 23,7 83
84 565 JAMES ROBERT MF 5 LUCHON LOURON CYCLISME 04:38:55 23,7 84
85 621 SENTENAC CHRISTOPHE MC 26 velo club du canton d'aspet 04:38:55 23,7 85
86 562 HORODECKI CHRISTOPHE MC 27 VTT Cornebarrieu 04:38:56 23,7 86
87 669 RIVALS CHRISTIAN MC 28   04:38:56 23,7 87
88 502 BOUCHER JULIEN MB 18   04:38:56 23,7 88
89 712 KOCH CHRISTIAN MD 17 NL 04:39:04 23,6 89
90 636 LACRAMPE CHRISTIAN MD 18 AVENIR BIZANOS 04:39:28 23,6 90
91 753 PUIG STEPHANE MC 29 ONN 04:39:28 23,6 91
92 593 CORREGE JEAN-PHILIPPE MD 19 LES DEJANTÉS 65 04:39:45 23,6 92
93 760 BLOUIN FABRICE MC 30 NL 04:39:51 23,6 93
94 535 SERVANT EMMANUEL MC 31   04:41:49 23,4 94
95 767 DESPAUX DENIS MC 32   04:43:56 23,2 95
96 750 BLANQUIER DORIAN MB 19 MONTREJEAU CYCLO CLUB 04:45:21 23,1 96
97 730 MABIRE MICHEL MF 6 PORNICHET 04:45:29 23,1 97
98 601 DELMAS HUBERT MF 7 SAUBENS CYCLO 31 04:45:52 23,1 98
99 545 SAMOUCO JEAN MC 33 ENTENTE CYCLISTE SARRANCOLINOISE 04:46:43 23,0 99
100 732 LETORD CHRISTIAN MF 8 US BAZAS 04:47:11 23,0 100
101 765 VAN DEN BROEK FRANK MC 34   04:47:11 23,0 101
102 521 PALACIN BERNARD ME 9   04:47:11 23,0 102
103 546 LEFRANC CLAIRE FW1 1 TRIATHLON CLUB MONTALBANAIS 04:47:34 23,0 1
104 580 TUFFAL CHRISTOPHE MC 35 Cyclotourisme de l'Espérance 04:47:35 22,9 103
105 558 LAPEYRE JEREMY MB 20   04:47:37 22,9 104
106 657 COUPEAU BASTIEN MA 13 VC PONTACQUAIS 04:47:43 22,9 105
107 522 PRIOLEAU LAURENT MD 20 cyclo club du val de l'eyre 04:47:44 22,9 106
108 528 LOYER DAVID MC 36   04:47:45 22,9 107
109 563 HERBRETEAU YANNICK MC 37 ERC CHAILLES 04:47:46 22,9 108
110 573 CLOESPIN PIERRE-YVES MB 21   04:47:47 22,9 109
111 540 FONTENEAU EMMANUEL MC 38 GRISONS CYCLISTES SAINT GEORGES DE POINTINDOUX 04:47:47 22,9 110
112 747 BERNADET PATRICK MD 21 BILLAC ATHLETIC 04:47:48 22,9 111
113 768 ZORZE NOWE LAURENT MC 39   04:47:48 22,9 112
114 771 URDIROZ ALBERT MD 22 AIRBUS FREEWHEEL 04:47:49 22,9 113
115 662 TENSOU DENIS MC 40   04:47:50 22,9 114
116 575 LAQUIEZE FABRICE MC 41 EVBB 04:51:42 22,6 115
117 548 MARTIN JULIEN MA 14 FC OLORON 04:51:44 22,6 116
118 670 DELPECH JOËL MD 23 CAP 09 04:51:45 22,6 117
119 561 FOUREZ CEDRIC MB 22 Dadoucyclotourisme 04:51:46 22,6 118
120 526 JOUFFRE DAMIEN MB 23 TOULOUSE TRIATHLON 04:51:46 22,6 119
121 687 BUCAILLE JEAN JACQUES MF 9 Cyclo Barcarès 04:53:30 22,5 120
122 600 WHITE STEPHEN ME 10   04:53:55 22,5 121
123 713 LOPEZ ERIC MD 24 VTT NOE 04:53:56 22,5 122
124 625 TAYLOR NICK MD 25   04:55:09 22,4 123
125 584 GUIU BERNARD MD 26   04:56:21 22,3 124
126 627 BARON PHILIPPE MB 24 CYCLO FONSORBAIS 04:58:35 22,1 125
127 613 SAYA MIKAEL MB 25 So6 de Toulouse 04:58:38 22,1 126
128 665 BESSOU ADRIEN MB 26   04:58:40 22,1 127
129 585 CAZELLE JEAN LUC MD 27   04:58:42 22,1 128
130 582 TOURREAU FLORIAN MB 27 MONTREJEAU CYCLO CLUB 04:58:43 22,1 129
131 720 LORIOT VINCENT ME 11 VELO CLUB ST-SEBASTIEN SUR LOISE 04:58:44 22,1 130
132 719 MONSERIE GEORGES MF 10 NL 04:58:44 22,1 131
133 623 SUERE THIERRY MC 42 VCCA 04:58:45 22,1 132
134 756 DUBIN MICHEL MD 28 NL 04:58:46 22,1 133
135 544 COUTELET THIERRY MD 29 CAVIGNAC CLUB NORD GIRONDE 04:58:47 22,1 134
136 507 GRANET PHILIPPE MC 43 GUIDON LHERMOIS 04:59:32 22,0 135
137 648 TAILLEFER MARINE FW1 2 TUC TRIATHLON 04:59:36 22,0 2
138 663 TACHON BRUNO MD 30 VELO CLUB VILLEFRANCHOIS 05:00:39 22,0 136
139 510 HUCTEAU HERVÉ MC 44 PEDALE JONZACAISE 05:02:58 21,8 137
140 517 VINSONNEAU BERNARD MF 11 CYCLO TOURISTE POITEVINS 05:06:42 21,5 138
141 519 VINSONNEAU DAVID MC 45 TEAM ASPOC 05:06:43 21,5 139
142 722 MORA JEAN-MARC ME 12 FRJEP LESPERON 05:07:47 21,4 140
143 772 MERENCIANO GILBERT MD 31 RANDONNEUR BRAXEEN 05:07:47 21,4 141
144 574 LACHENY PASCAL MD 32 AS LEGRAND 05:07:47 21,4 142
145 754 MENDOZA MATHIEU MA 15 NL 05:07:48 21,4 143
146 769 RUMEAU PHILIPPE MC 46   05:09:49 21,3 144
147 684 OLIVIER DOMINIQUE FW2 1 PORTET TRI 05:09:52 21,3 3
148 124 GUAUS JEAN-MICHEL MF 12 Burdigala Vélo Club 33 05:09:53 21,3 145
149 608 BRARD MICHEL MD 33 VELO CLUB BAZAS BERNOS BEAULAC 05:09:54 21,3 146
150 634 GRIL MICHEL MF 13 CYCLO CLUB CASTANEEN 05:09:56 21,3 147
151 527 PRIOU MICHEL MD 34 velo club de st orens 05:09:56 21,3 148
152 609 ALBINET ANDRE MD 35 CYCLO 4 HAUT AGENAIS 05:09:56 21,3 149
153 640 GUERRA SERGE MD 36 ROQUETTES CC 05:09:57 21,3 150
154 597 BIFFI LOUIS ME 13 CYCLO CLUB LOURDAIS 05:09:57 21,3 151
155 606 BEYRIA YVES MC 47 SAUBENS CYCLO 31 05:09:58 21,3 152
156 594 BAHEGNE XAVIER MA 16 Lo Rey Du Lac 05:09:58 21,3 153
157 588 ROUVEL LAURENT MD 37 INTEGRALE BICYCLE CLUB ISLE JOURDAIN 05:09:59 21,3 154
158 715 BIASOTTO FRANÇOIS MF 14 SPORT OLYMPIQUE SEYSSOIS 05:10:01 21,3 155
159 591 RANGIER DIDIER MD 38 Burdigala Vélo Club 33 05:10:03 21,3 156
160 595 BAHÈGNE OLIVIER MA 17 TUC TRIATHLON 05:10:03 21,3 157
161 556 STEFANI FABRICE MC 48 SPCC 05:10:05 21,3 158
162 153 MARKS LAURENCE MA 18   05:10:23 21,3 159
163 516 DEPIERREFIXE MICHAEL MC 49 BCC CAMPSAS 05:10:37 21,2 160
164 637 DIMBARBE MICHEL MF 15 AS PYRENEENNE 05:10:38 21,2 161
165 560 LARRIEU JEAN-MICHEL ME 14 C.C. DE LA 05:10:39 21,2 162
166 706 BOUE FRANCIS ME 15 C.R.MURET 05:10:40 21,2 163
167 639 GARROCQ DANIEL ME 16   05:11:04 21,2 164
168 572 LAVAL SERGE MF 16 U.C.BRIVE 05:13:42 21,0 165
169 653 BOUCHER ADRIEN MA 19   05:14:14 21,0 166
170 607 BARBOSA MANUEL MD 39 ROUE LIBRE HUOSSAISE 05:14:50 21,0 167
171 738 DUPUY BERNARD ME 17 LA ROUE LIBRE HUOSSAISE 05:14:54 21,0 168
172 509 SOULA ALAIN MD 40 Cyclo Club Castanéen 05:14:56 21,0 169
173 651 GONZALEZ PHILIPPE MD 41 AC LE FOUSSERET 05:14:59 21,0 170
174 707 THAIS LAURENT MD 42   05:15:01 21,0 171
175 618 VERNIERES FLORIAN MA 20   05:16:28 20,9 172
176 728 BONNEFOI ANNE CECILE FW1 3 NL 05:16:29 20,9 4
177 514 BORDIER GERARD MF 17 UC CAMPAN LA VALLÉE 05:16:39 20,8 173
178 552 BARILLEAU DOMINIQUE MD 43 GIROU TRIATHLON 05:17:23 20,8 174
179 554 RIVIERE BERNARD MF 18 GIROU TRIATHLON 05:17:24 20,8 175
180 534 LAYMAJOUX GILBERT MD 44 BCC CAMPSAS 05:20:07 20,6 176
181 736 PALACIN PHILIPPE MD 45 NL 05:21:03 20,6 177
182 503 BAK JULIEN MC 50   05:21:44 20,5 178
183 512 GRAS STEPHANE MC 51 CV MONTASTRUC 05:23:13 20,4 179
184 602 LARREGOLA ERIC MC 52 COMMINGES TRIATHLON 05:23:55 20,4 180
185 654 CAVERZAN FRANCIS MD 46 ASAT TISSEO 05:24:13 20,4 181
186 592 BRIGNOLI JEAN-CLAUDE MF 19 SAUBENS CYCLO 31 05:24:15 20,4 182
187 629 S PHIPPS PHIPPS MC 53   05:24:48 20,3 183
188 581 LITZINGER JEAN MARIE ME 18 VC MAUVEZINOIS 05:25:52 20,3 184
189 538 PROUDHOM JEAN-FRANÇOIS MD 47 CPRS LABARTHE SUR LEZE 05:28:41 20,1 185
190 691 VIDAL PATRICIA FW3 1 COUSERANS CYCLISTE 05:28:42 20,1 5
191 605 CHARLES YVES MD 48 SAUBENS CYCLO 31 05:28:42 20,1 186
192 620 MARKHAM ANDREW MD 49   05:31:01 19,9 187
193 626 GARDIN DANIEL ME 19   05:31:02 19,9 188
194 523 HOO JEAN MF 20   05:31:02 19,9 189
195 676 RODIERE SYLVAIN MB 28   05:34:06 19,8 190
196 766 SCHAMM DIDIER MD 50   05:34:17 19,7 191
197 566 SANCHEZ BRUNO MD 51   05:34:18 19,7 192
198 729 BAUDUER FREDERIC MD 52 NL 05:34:18 19,7 193
199 711 POUTOU SERGE MD 53   05:36:03 19,6 194
200 617 TELMON PHILIPPE MD 54 CYCLO CLUB LOURDAIS 05:36:03 19,6 195
201 741 JAILLET HERVE MC 54 NL 05:37:23 19,6 196
202 539 LARA-CARRASCO JOSE MF 21 CCNG CAVIGNAC 05:39:51 19,4 197
203 679 CABROL JEAN-PIERRE MD 55   05:39:51 19,4 198
204 666 VIRIÉ LOUIS ME 20   05:39:52 19,4 199
205 531 CASSAGNEAU NICOLAS MC 55   05:39:53 19,4 200
206 718 COURBIAN CHRISTIAN MF 22 ARTIGUES CYCLO SPORT 05:41:38 19,3 201
207 742 PEYREGNE CECILE FW2 2 FF TRIATHLON 05:41:39 19,3 6
208 716 MOIZO MICHEL MF 23 TONNENS CC 05:41:40 19,3 202
209 511 ROUANET JEAN PIERRE MF 24 TOULOUSE TRIATHLON 05:41:41 19,3 203
210 536 MASSOT LAURENT MC 56 mondonville vc 05:48:05 19,0 204
211 203 ROOS TIM MD 56 NL 05:48:05 19,0 205
212 551 BEAUREPAIRE RÉMI MB 29 SAM athlétisme 05:48:06 19,0 206
213 701 CHOULET YVES ME 21 LAVAUR VELO CLUB 05:48:14 19,0 207
214 603 PREPOGNOT BERNARD MF 25 SAUBENS CYCLO 31 05:48:30 18,9 208
215 614 BARRÈS BRUNO MC 57   05:48:58 18,9 209
216 543 LAPEYRE MICHEL ME 22   05:52:24 18,7 210
217 542 SUIF GILBERT MD 57 VCRO vélo Club Roquettois Omnisport 05:52:35 18,7 211
218 569 BARNIER WILLIAM MA 21   05:54:38 18,6 212
219 568 BARNIER THIBAULT MB 30   05:54:38 18,6 213
220 541 FONTENEAU LUDOVIC MA 22   05:54:46 18,6 214
221 505 POUEYMIRO-PASQUINE RICHARD MD 58 CYCLO CLUB PONTACQUAIS 05:55:37 18,6 215
222 564 ZUBIETA JEAN YVES MD 59 CYCLO CLUB PONTACQUAIS 05:55:37 18,6 216
223 599 WHITE SUZANNE FW3 2 VELO CLUB CANTON ASPET 05:55:40 18,6 7
224 559 BERTHONNAUD HENRI MD 60   05:58:31 18,4 217
225 549 DO JEAN-MARC ME 23   05:58:33 18,4 218
226 686 VIDAL DOMINIQUE MD 61 LES RECYCLES 05:58:33 18,4 219
227 557 PLESTANT BERNARD ME 24   05:58:35 18,4 220
228 619 VERNIERES CLAUDE MF 26 LES CYCLOS DE TOURNEFEUILLE 06:00:15 18,3 221
229 578 MITERNIQUE HUGUETTE FW3 3 SCP CYCLISME PLAISANCE DU TOUCH 06:00:15 18,3 8
230 624 LAFAGE STÉPHANE MC 58 VTT CORNEBARRIEU 06:00:16 18,3 222
231 553 GAUTIER LAURA FW1 4 TUC TRIATHLON 06:19:14 17,4 9
232 733 SOULIS JEAN-MICHEL ME 25 NL 06:19:15 17,4 223
233 633 LESCOS JEAN-BERNARD MD 62 UC LEHAILLAN 06:21:46 17,3 224
234 598 MARTIN NICOLAS MB 31 PAU RACING LES ISARDS 06:22:26 17,3 225
235 604 CUBELLS SERGE MF 27   06:22:28 17,3 226
236 501 BEAUFILS VALERIE FW2 3 ENTENTE CYCLISTE SARRANCOLINOISE 06:23:07 17,2 10
237 673 SARRAUT LUCIEN ME 26 ENTENTE CYCLISTE SARRANCOLINOISE 06:23:07 17,2 227
238 688 RACHOU DANIELE FW2 4   06:36:59 16,6 11
239 680 ESCRIBE ROLAND MD 63 BALMA OLYMPIQUE CYCLISME 06:37:01 16,6 228
240 615 CAZORLA BERTRAND MC 59 TRAIL TEAM BUCHINOIS (TTB) 06:40:58 16,5 229
241 638 MILLOT CHRISTOPHE MB 32 MURET AS CYCLISTE 06:49:17 16,1 230
242 612 HAGARD ROSE FW3 4   06:53:08 16,0 12
243 734 DE MIGUEL GÉRARD MF 28 NL 06:55:42 15,9 231
244 709 GUERINEAUD ALAIN MF 29 MERIGNAC V.C. 07:00:50 15,7 232
245 140 IVANOVA ELENA FW3 0 CYCLO FONSORBAIS 00:00:00 Abd Abd
246 518 LE TINIER CHRISTIAN MD 0   00:00:00 Abd Abd
247 570 GRANET XAVIER MC 0 CAVIGNAC CLUB NORD GIRONDE 00:00:00 Abd Abd
248 677 BOURBON PAUL MA 0   00:00:00 Abd Abd
249 699 ZANGHIERI SÉVERINE FW2 0 Couserans Cycliste 00:00:00 Abd Abd
250 704 DUCOS THIERRY MD 0 COUSERANS CYCLISTE 00:00:00 Abd Abd
251 726 TAUNAY FRANCK MC 0   00:00:00 Abd Abd
252 660 CABAL CHRISTIAN MD 0 CABAL 04:20:25 Abd Abd
253 576 ESTRIPEAU EDDY MC 0 DASSOS 06:47:21 Abd Abd
254 643 ARQUE JEAN MD 0 INTEGRALE BICYCLE CLUB ISLE JOURDAIN 06:47:30 Abd Abd
255 579 MAGGIORANI JEAN LOUIS MD 0 club vtt Cornebarrieu 06:47:31 Abd Abd